Terminal Aerodrome Forecast
Issued by NWS Anchorage, AK

Home | Current Version | Previous Version | Text Only | Print | Product List | Glossary On
Versions: 1 2 3 4 5 6 7 8 9 10 11 12 13 14 15 16 17 18 19 20 21 22 23 24 25 26 27 28 29 30 31 32 33 34 35 36 37 38
000
FTAK31 PAFC 022321
TAFANC
TAF
PANC 022321Z 0300/0406 16015G25KT P6SM VCSH SCT050 BKN080
     FM031200 16011KT P6SM SCT060 BKN100
     FM040000 15012G20KT P6SM SCT060 BKN100=

USA.gov is the U.S. government's official web portal to all federal, state and local government web resources and services.